Bonaire, Netherlands

6:53 PM AST on September 20, 2017 (GMT -0400)
Flamingo

Weather History for TNCB - June, 2014

Change the Weather History Date:

Saturday, June 7, 2014

  Actual Average Record
Temperature  
Mean Temperature 83 °F -  
Max Temperature 86 °F 87 °F 91 °F (2006)
Min Temperature 80 °F 81 °F 80 °F (2005)
Cooling Degree Days 18    
Growing Degree Days 33 (Base 50)    
Moisture  
Dew Point 74 °F    
Average Humidity 75    
Maximum Humidity 79    
Minimum Humidity 66    
Precipitation  
Precipitation 0.00 in - - ()
Sea Level Pressure  
Sea Level Pressure 29.86 in    
Wind  
Wind Speed 17 mph ()    
Max Wind Speed 23 mph    
Max Gust Speed -    
Visibility 6.2 miles    
Events      
Averages and records for this station are not official NWS values.
T = Trace of Precipitation, MM = Missing Value Source: Averaged Metar Reports

Daily Weather History Graph

Daily Weather History Graph

Search for Another Location

Airport or City:

Trip Planner

Search our weather history database for the weather conditions in past years. The results will help you decide how hot, cold, wet, or windy it might be!

Date:

Astronomy

Jun. 07, 2014 Rise Set
Actual Time 6:07 AM AST 6:56 PM AST
Civil Twilight 5:44 AM AST 7:19 PM AST
Nautical Twilight 5:17 AM AST 7:47 PM AST
Astronomical Twilight 4:49 AM AST 8:14 PM AST
Moon 2:01 PM AST (6/7) 1:31 AM AST (6/7)
Length of Visible Light 13h 35m
Length of Day
12h 49m
Waxing Gibbous, 67% of the Moon is Illuminated
Jun 7
Waxing Gibbous
Jun 13
Full
Jun 19
Last Quarter
Jun 27
New
Jul 5
First Quarter

Hourly Weather History & Observations

Time (AST) Temp. Heat Index Dew Point Humidity Pressure Visibility Wind Dir Wind Speed Gust Speed Precip Events Conditions
12:00 AM 80.6 °F 85.4 °F 73.4 °F 79% 29.89 in - ENE 18.4 mph - N/A   Unknown
1:00 AM 80.6 °F 85.4 °F 73.4 °F 79% 29.89 in - ENE 19.6 mph - N/A   Unknown
2:00 AM 80.6 °F 85.4 °F 73.4 °F 79% 29.86 in - ENE 18.4 mph - N/A   Unknown
3:00 AM 80.6 °F 85.4 °F 73.4 °F 79% 29.86 in - ENE 16.1 mph - N/A   Unknown
4:00 AM 80.6 °F 85.4 °F 73.4 °F 79% 29.86 in - ENE 18.4 mph - N/A   Unknown
5:00 AM 80.6 °F 85.4 °F 73.4 °F 79% 29.83 in - ENE 17.3 mph - N/A   Unknown
6:00 AM 80.6 °F 85.4 °F 73.4 °F 79% 29.83 in - ENE 17.3 mph - N/A   Unknown
7:00 AM 80.6 °F 84.6 °F 71.6 °F 74% 29.86 in - ENE 19.6 mph - N/A   Unknown
8:00 AM 82.4 °F 88.2 °F 73.4 °F 74% 29.89 in 6.2 mi ENE 20.7 mph - N/A   Scattered Clouds
9:00 AM 84.2 °F 90.9 °F 73.4 °F 70% 29.89 in - East 20.7 mph - N/A   Unknown
10:00 AM 84.2 °F 90.9 °F 73.4 °F 70% 29.89 in 6.2 mi East 23.0 mph - N/A   Partly Cloudy
11:00 AM 86.0 °F 93.4 °F 73.4 °F 66% 29.89 in 6.2 mi East 23.0 mph - N/A   Mostly Cloudy
12:00 PM 86.0 °F 93.4 °F 73.4 °F 66% 29.89 in 6.2 mi ENE 19.6 mph - N/A   Scattered Clouds
2:00 PM 86.0 °F 95.1 °F 75.2 °F 70% 29.86 in - ENE 18.4 mph - N/A   Unknown
3:00 PM 86.0 °F 95.1 °F 75.2 °F 70% 29.83 in 6.2 mi East 18.4 mph - N/A   Scattered Clouds
4:00 PM 86.0 °F 95.1 °F 75.2 °F 70% 29.83 in 6.2 mi ENE 19.6 mph - N/A   Scattered Clouds
5:00 PM 84.2 °F 92.3 °F 75.2 °F 74% 29.80 in - ENE 18.4 mph - N/A   Unknown
6:00 PM 84.2 °F 92.3 °F 75.2 °F 74% 29.83 in 6.2 mi ENE 20.7 mph - N/A   Scattered Clouds
7:00 PM 82.4 °F 89.5 °F 75.2 °F 79% 29.83 in 6.2 mi ENE 19.6 mph - N/A   Scattered Clouds
8:00 PM 82.4 °F 89.5 °F 75.2 °F 79% 29.86 in - ENE 17.3 mph - N/A   Unknown
9:00 PM 82.4 °F 89.5 °F 75.2 °F 79% 29.89 in 6.2 mi ENE 17.3 mph - N/A   Scattered Clouds
10:00 PM 82.4 °F 89.5 °F 75.2 °F 79% 29.89 in - NE 19.6 mph - N/A   Unknown
11:00 PM 82.4 °F 89.5 °F 75.2 °F 79% 29.89 in - NE 18.4 mph - N/A   Unknown